This demonstration page uses our WeatherBlox Daily Observations layout. Learn more.

Hourly Observations for November 29, 2018

Temp ( °F °C ) Dew Point ( °F °C ) Humidity (%) Winds ( mph kmh ) Pressure ( in mb ) Visibility ( mi km ) Precip ( " mm )
12:15 am 00:15 Clear 38 3.3 37 2.5 95 95 W 3 6 29.83 1010 10 16.09344 0 0
12:35 am 00:35 Clear 37 3 36 2.4 96 96 W 7 11 29.83 1010 10 16.09344 0 0
12:55 am 00:55 Clear 40 4.5 38 3.5 93 93 W 7 11 29.8 1009 10 16.09344 0 0
1:15 am 01:15 Partly Cloudy 40 4.6 38 3.4 92 92 WNW 3 6 29.77 1008 10 16.09344 0 0
1:35 am 01:35 Partly Cloudy 39 4 37 3 93 93 W 8 13 29.8 1009 10 16.09344 0 0
1:55 am 01:55 Clear 38 3.5 37 2.8 95 95 WNW 3 6 29.83 1010 10 16.09344 0 0
2:15 am 02:15 Partly Cloudy 38 3.6 37 3 96 96 WNW 7 11 29.8 1009 10 16.09344 0 0
2:35 am 02:35 Partly Cloudy 38 3.4 37 2.6 95 95 NW 7 11 29.83 1010 10 16.09344 0 0
2:55 am 02:55 Mostly Cloudy 37 3 37 2.5 97 97 NNW 5 7 29.83 1010 10 16.09344 0 0
3:15 am 03:15 Partly Cloudy 37 3 37 2.6 97 97 NNW 5 7 29.8 1009 10 16.09344 0 0
3:35 am 03:35 Partly Cloudy 37 2.7 36 2.3 97 97 Calm 29.8 1009 10 16.09344 0 0
3:55 am 03:55 Mostly Cloudy 37 2.6 36 2.3 98 98 NNW 3 6 29.8 1009 10 16.09344 0 0
4:15 am 04:15 Mostly Cloudy 37 2.6 36 2.3 98 98 Calm 29.8 1009 10 16.09344 0 0
4:35 am 04:35 Mostly Cloudy 36 2.4 36 2.1 98 98 NW 5 7 29.8 1009 10 16.09344 0 0
4:55 am 04:55 Cloudy 36 2.2 36 2 99 99 NW 6 9 29.8 1009 10 16.09344 0 0
5:15 am 05:15 Cloudy 37 2.6 36 2.4 99 99 W 5 7 29.83 1010 10 16.09344 0 0
5:35 am 05:35 Cloudy 37 2.8 37 2.5 98 98 NW 6 9 29.83 1010 10 16.09344 0 0
5:55 am 05:55 Cloudy 37 2.9 37 2.5 97 97 NNW 3 6 29.8 1009 10 16.09344 0 0
6:15 am 06:15 Mostly Cloudy 37 2.7 36 2.4 98 98 NW 3 6 29.8 1009 10 16.09344 0 0
6:35 am 06:35 Cloudy 37 2.8 37 2.5 98 98 NNW 3 6 29.8 1009 10 16.09344 0 0
6:55 am 06:55 Cloudy 37 3 37 2.6 97 97 NNW 6 9 29.83 1010 10 16.09344 0 0
7:15 am 07:15 Cloudy 38 3.1 37 2.6 97 97 NW 3 6 29.83 1010 10 16.09344 0 0
7:35 am 07:35 Cloudy 38 3.3 37 2.9 97 97 NW 5 7 29.83 1010 10 16.09344 0 0
7:55 am 07:55 Mostly Cloudy 38 3.3 37 2.7 96 96 NNW 5 7 29.85 1011 10 16.09344 0 0
8:15 am 08:15 Mostly Cloudy 38 3.5 37 2.8 95 95 NNW 5 7 29.85 1011 10 16.09344 0 0
8:35 am 08:35 Mostly Cloudy 38 3.5 37 2.8 95 95 NNW 5 7 29.85 1011 10 16.09344 0 0
8:55 am 08:55 Cloudy 38 3.6 37 3 96 96 NNW 6 9 29.85 1011 10 16.09344 0 0
9:15 am 09:15 Cloudy 39 3.7 37 3 95 95 NNW 5 7 29.85 1011 10 16.09344 0 0
9:35 am 09:35 Cloudy 40 4.3 38 3.5 95 95 NW 5 7 29.83 1010 10 16.09344 0 0
9:55 am 09:55 Mostly Cloudy 41 5.1 39 4 93 93 NW 3 6 29.83 1010 10 16.09344 0 0
10:15 am 10:15 Mostly Cloudy 42 5.8 40 4.5 91 91 Calm 29.83 1010 10 16.09344 0 0
10:35 am 10:35 Cloudy 44 6.4 41 4.8 90 90 WNW 3 6 29.83 1010 10 16.09344 0 0
10:55 am 10:55 Cloudy 44 6.9 41 5 88 88 Calm 29.83 1010 10 16.09344 0 0
11:15 am 11:15 Cloudy 45 7.4 42 5.4 87 87 Calm 29.8 1009 10 16.09344 0 0
11:35 am 11:35 Cloudy 46 7.7 42 5.7 87 87 Calm 29.8 1009 10 16.09344 0 0
11:55 am 11:55 Cloudy 47 8.1 42 5.3 83 83 NNW 5 7 29.8 1009 10 16.09344 0 0
12:15 pm 12:15 Cloudy 47 8.2 42 5.4 83 83 NNW 6 9 29.8 1009 10 16.09344 0 0
12:35 pm 12:35 Cloudy 48 8.9 42 5.7 81 81 NW 7 11 29.8 1009 10 16.09344 0 0
12:55 pm 12:55 Mostly Cloudy 48 9 42 5.8 81 81 NNW 6 9 29.8 1009 10 16.09344 0 0
1:15 pm 13:15 Mostly Cloudy 49 9.2 43 5.9 80 80 NNW 7 11 29.8 1009 10 16.09344 0 0
1:35 pm 13:35 Cloudy 49 9.3 43 6 80 80 N 7 11 29.8 1009 10 16.09344 0 0
1:55 pm 13:55 Cloudy 50 9.8 43 6.3 79 79 NNW 7 11 29.8 1009 10 16.09344 0 0
2:15 pm 14:15 Mostly Cloudy 51 10.3 43 6.1 75 75 NNW 9 15 29.8 1009 10 16.09344 0 0
2:35 pm 14:35 Partly Cloudy 51 10.3 43 6.2 76 76 N 8 13 29.8 1009 10 16.09344 0 0
2:55 pm 14:55 Partly Cloudy 51 10.5 44 6.5 76 76 N 8 13 29.77 1008 10 16.09344 0 0
3:15 pm 15:15 Sunny 50 10 43 6.1 77 77 N 10 17 29.8 1009 10 16.09344 0 0
3:35 pm 15:35 Sunny 50 10 43 5.9 76 76 N 9 15 29.8 1009 10 16.09344 0 0
3:55 pm 15:55 Sunny 50 9.9 43 6 77 77 N 8 13 29.8 1009 10 16.09344 0 0
4:15 pm 16:15 Sunny 49 9.3 42 5.8 79 79 N 9 15 29.8 1009 10 16.09344 0 0
4:35 pm 16:35 Sunny 47 8.5 42 5.5 82 82 N 7 11 29.8 1009 10 16.09344 0 0
4:55 pm 16:55 Sunny 45 7.2 41 5 86 86 NNE 5 7 29.8 1009 10 16.09344 0 0
5:15 pm 17:15 Clear 43 6.1 40 4.3 88 88 NNE 6 9 29.83 1010 10 16.09344 0 0
5:35 pm 17:35 Clear 39 4 37 3 93 93 NNE 5 7 29.88 1012 10 16.09344 0 0
5:55 pm 17:55 Clear 38 3.4 37 2.5 94 94 NNE 6 9 29.88 1012 10 16.09344 0 0
6:15 pm 18:15 Clear 37 2.7 36 2.3 97 97 NNE 5 7 29.88 1012 10 16.09344 0 0
6:35 pm 18:35 Clear 37 2.7 37 2.5 99 99 ENE 3 6 29.88 1012 10 16.09344 0 0
6:55 pm 18:55 Clear 35 1.6 35 1.5 99 99 NE 5 7 29.88 1012 10 16.09344 0 0
7:15 pm 19:15 Clear 35 1.4 35 1.4 100 100 NE 5 7 29.88 1012 10 16.09344 0 0
7:35 pm 19:35 Clear 35 1.8 35 1.8 100 100 Calm 29.91 1013 10 16.09344 0 0
7:55 pm 19:55 Clear 34 1.2 34 1.2 100 100 Calm 29.88 1012 10 16.09344 0 0
8:15 pm 20:15 Clear with Mist and Fog 33 0.7 33 0.7 100 100 Calm 29.94 1014 2.5 4.02336 0 0
8:35 pm 20:35 Partly Cloudy 31 -0.4 31 -0.4 100 100 N 3 6 29.91 1013 7 11.265408 0 0
8:55 pm 20:55 Cloudy with Freezing Fog 31 -0.4 31 -0.4 100 100 Calm 29.91 1013 0.25 0.402336 0 0
9:15 pm 21:15 Cloudy with Freezing Fog 30 -1 30 -1 100 100 Calm 29.94 1014 0.25 0.402336 0 0
9:35 pm 21:35 Cloudy with Freezing Fog 31 -0.6 31 -0.6 100 100 Calm 29.94 1014 0.5 0.804672 0 0
9:55 pm 21:55 Cloudy with Freezing Fog 30 -1.2 30 -1.2 100 100 Calm 29.94 1014 0.5 0.804672 0 0
10:15 pm 22:15 Cloudy with Freezing Fog 30 -1.3 30 -1.3 100 100 Calm 29.94 1014 0.5 0.804672 0 0
10:35 pm 22:35 Cloudy with Freezing Fog 30 -1.1 30 -1.1 100 100 Calm 29.94 1014 0.5 0.804672 0 0
10:55 pm 22:55 Cloudy with Freezing Fog 29 -1.8 29 -1.8 100 100 Calm 29.94 1014 0.25 0.402336 0 0
11:15 pm 23:15 Cloudy with Freezing Fog 28 -2.1 28 -2.1 100 100 N 3 6 29.97 1015 0.25 0.402336 0 0
11:35 pm 23:35 Cloudy with Freezing Fog 30 -1.2 30 -1.2 100 100 Calm 29.94 1014 0.25 0.402336 0 0
11:55 pm 23:55 Cloudy with Freezing Fog 31 -0.7 31 -0.7 100 100 NNE 3 6 29.94 1014 0 0 0 0

Powered by AerisWeather